Time,TemperatureF,DewpointF,PressureIn,WindDirection,WindDirectionDegrees,WindSpeedMPH,WindSpeedGustMPH,Humidity,HourlyPrecipIn,Conditions,Clouds,dailyrainin,SoftwareType,DateUTC
2013-06-16 00:05:00,58.9,53.0,25.30,NE,37,0.0,3.0,81,0.00,,,0.00,weatherlink.com 1.10,2013-06-16 06:05:00,
2013-06-16 00:20:00,58.8,54.0,25.29,SE,127,1.0,2.0,83,0.00,,,0.00,weatherlink.com 1.10,2013-06-16 06:20:00,
2013-06-16 00:35:00,58.4,53.0,25.29,NE,40,0.0,2.0,83,0.00,,,0.00,weatherlink.com 1.10,2013-06-16 06:35:00,
2013-06-16 00:50:00,58.9,54.0,25.29,NE,54,0.0,3.0,83,0.00,,,0.00,weatherlink.com 1.10,2013-06-16 06:50:00,
2013-06-16 01:06:00,58.8,54.0,25.30,SE,129,1.0,4.0,83,0.00,,,0.00,weatherlink.com 1.10,2013-06-16 07:06:00,
2013-06-16 01:20:00,58.4,53.0,25.31,East,101,1.0,3.0,83,0.00,,,0.00,weatherlink.com 1.10,2013-06-16 07:20:00,
2013-06-16 01:36:00,56.0,53.0,25.31,NNE,30,2.0,2.0,88,0.00,,,0.00,weatherlink.com 1.10,2013-06-16 07:36:00,
2013-06-16 01:51:00,57.7,54.0,25.31,ESE,112,1.0,3.0,87,0.00,,,0.00,weatherlink.com 1.10,2013-06-16 07:51:00,
2013-06-16 02:06:00,57.1,53.0,25.30,SE,129,1.0,1.0,87,0.00,,,0.00,weatherlink.com 1.10,2013-06-16 08:06:00,
2013-06-16 02:21:00,56.6,53.0,25.31,SE,129,0.0,0.0,88,0.00,,,0.00,weatherlink.com 1.10,2013-06-16 08:21:00,
2013-06-16 02:36:00,56.1,53.0,25.32,SE,129,0.0,1.0,90,0.00,,,0.00,weatherlink.com 1.10,2013-06-16 08:36:00,
2013-06-16 02:51:00,57.1,54.0,25.32,West,262,1.0,2.0,88,0.00,,,0.00,weatherlink.com 1.10,2013-06-16 08:51:00,
2013-06-16 03:06:00,57.2,53.0,25.32,WSW,249,0.0,0.0,86,0.00,,,0.00,weatherlink.com 1.10,2013-06-16 09:06:00,
2013-06-16 03:21:00,57.0,54.0,25.32,WSW,250,0.0,1.0,88,0.00,,,0.00,weatherlink.com 1.10,2013-06-16 09:21:00,
2013-06-16 03:36:00,55.8,53.0,25.31,NE,44,0.0,2.0,90,0.00,,,0.00,weatherlink.com 1.10,2013-06-16 09:36:00,
2013-06-16 03:51:00,56.4,54.0,25.31,NE,45,0.0,1.0,91,0.00,,,0.00,weatherlink.com 1.10,2013-06-16 09:51:00,
2013-06-16 04:06:00,56.5,54.0,25.31,ENE,70,0.0,2.0,90,0.00,,,0.00,weatherlink.com 1.10,2013-06-16 10:06:00,
2013-06-16 04:21:00,56.5,54.0,25.31,ESE,106,0.0,2.0,92,0.00,,,0.00,weatherlink.com 1.10,2013-06-16 10:21:00,
2013-06-16 04:37:00,56.7,55.0,25.31,ESE,111,4.0,4.0,92,0.00,,,0.00,weatherlink.com 1.10,2013-06-16 10:37:00,
2013-06-16 04:51:00,57.2,55.0,25.31,SE,134,2.0,4.0,93,0.00,,,0.00,weatherlink.com 1.10,2013-06-16 10:51:00,
2013-06-16 05:06:00,58.5,57.0,25.31,SE,127,3.0,6.0,94,0.00,,,0.00,weatherlink.com 1.10,2013-06-16 11:06:00,
2013-06-16 05:21:00,59.2,57.0,25.31,SE,136,1.0,7.0,92,0.00,,,0.00,weatherlink.com 1.10,2013-06-16 11:21:00,
2013-06-16 05:36:00,58.8,57.0,25.31,SE,124,1.0,4.0,93,0.00,,,0.00,weatherlink.com 1.10,2013-06-16 11:36:00,
2013-06-16 05:51:00,58.6,57.0,25.32,SSE,155,0.0,3.0,94,0.00,,,0.00,weatherlink.com 1.10,2013-06-16 11:51:00,
2013-06-16 06:06:00,59.2,58.0,25.32,SE,134,0.0,4.0,94,0.00,,,0.00,weatherlink.com 1.10,2013-06-16 12:06:00,
2013-06-16 06:21:00,60.3,58.0,25.32,WSW,239,6.0,8.0,93,0.00,,,0.00,weatherlink.com 1.10,2013-06-16 12:21:00,
2013-06-16 06:36:00,61.1,59.0,25.32,SSE,158,5.0,12.0,91,0.00,,,0.00,weatherlink.com 1.10,2013-06-16 12:36:00,
2013-06-16 06:51:00,61.8,59.0,25.32,SE,146,5.0,9.0,89,0.00,,,0.00,weatherlink.com 1.10,2013-06-16 12:51:00,
2013-06-16 07:06:00,62.4,59.0,25.32,SSE,150,6.0,13.0,87,0.00,,,0.00,weatherlink.com 1.10,2013-06-16 13:06:00,
2013-06-16 07:21:00,63.4,59.0,25.32,SW,215,4.0,11.0,84,0.00,,,0.00,weatherlink.com 1.10,2013-06-16 13:21:00,
2013-06-16 07:36:00,64.0,58.0,25.32,ESE,120,7.0,12.0,80,0.00,,,0.00,weatherlink.com 1.10,2013-06-16 13:36:00,
2013-06-16 07:51:00,64.7,56.0,25.31,South,186,4.0,14.0,74,0.00,,,0.00,weatherlink.com 1.10,2013-06-16 13:51:00,
2013-06-16 08:06:00,65.9,55.0,25.31,SSW,212,6.0,17.0,68,0.00,,,0.00,weatherlink.com 1.10,2013-06-16 14:06:00,
2013-06-16 08:21:00,66.7,54.0,25.30,SSW,211,13.0,17.0,64,0.00,,,0.00,weatherlink.com 1.10,2013-06-16 14:21:00,
2013-06-16 08:36:00,67.7,53.0,25.30,WSW,240,11.0,17.0,60,0.00,,,0.00,weatherlink.com 1.10,2013-06-16 14:36:00,
2013-06-16 08:51:00,69.0,53.0,25.29,SSW,208,12.0,14.0,58,0.00,,,0.00,weatherlink.com 1.10,2013-06-16 14:51:00,
2013-06-16 09:06:00,70.5,53.0,25.29,SSE,167,10.0,16.0,54,0.00,,,0.00,weatherlink.com 1.10,2013-06-16 15:06:00,
2013-06-16 09:22:00,72.0,53.0,25.29,SE,139,5.0,17.0,51,0.00,,,0.00,weatherlink.com 1.10,2013-06-16 15:22:00,
2013-06-16 09:37:00,73.9,51.0,25.28,SSW,212,11.0,22.0,45,0.00,,,0.00,weatherlink.com 1.10,2013-06-16 15:37:00,
2013-06-16 09:52:00,75.0,50.0,25.29,WSW,256,9.0,21.0,42,0.00,,,0.00,weatherlink.com 1.10,2013-06-16 15:52:00,
2013-06-16 10:07:00,76.3,51.0,25.29,SSE,153,8.0,14.0,42,0.00,,,0.00,weatherlink.com 1.10,2013-06-16 16:07:00,
2013-06-16 10:22:00,78.4,51.0,25.28,West,260,17.0,17.0,38,0.00,,,0.00,weatherlink.com 1.10,2013-06-16 16:22:00,
2013-06-16 10:37:00,79.7,51.0,25.28,West,271,4.0,16.0,37,0.00,,,0.00,weatherlink.com 1.10,2013-06-16 16:37:00,
2013-06-16 10:52:00,81.5,51.0,25.28,West,271,11.0,16.0,35,0.00,,,0.00,weatherlink.com 1.10,2013-06-16 16:52:00,
2013-06-16 11:07:00,81.8,52.0,25.28,WSW,253,9.0,16.0,35,0.00,,,0.00,weatherlink.com 1.10,2013-06-16 17:07:00,
2013-06-16 11:22:00,83.4,48.0,25.28,West,263,7.0,16.0,29,0.00,,,0.00,weatherlink.com 1.10,2013-06-16 17:22:00,
2013-06-16 11:37:00,84.1,45.0,25.28,West,267,10.0,15.0,25,0.00,,,0.00,weatherlink.com 1.10,2013-06-16 17:37:00,
2013-06-16 11:52:00,84.7,39.0,25.27,WSW,250,6.0,13.0,20,0.00,,,0.00,weatherlink.com 1.10,2013-06-16 17:52:00,
2013-06-16 12:07:00,86.3,41.0,25.27,NW,311,7.0,12.0,20,0.00,,,0.00,weatherlink.com 1.10,2013-06-16 18:07:00,
2013-06-16 12:22:00,88.0,35.0,25.27,NNW,331,6.0,12.0,15,0.00,,,0.00,weatherlink.com 1.10,2013-06-16 18:22:00,
2013-06-16 12:37:00,89.4,32.0,25.27,NE,51,2.0,16.0,13,0.00,,,0.00,weatherlink.com 1.10,2013-06-16 18:37:00,
2013-06-16 12:52:00,89.0,34.0,25.26,WSW,237,4.0,15.0,14,0.00,,,0.00,weatherlink.com 1.10,2013-06-16 18:52:00,
2013-06-16 13:07:00,89.0,34.0,25.26,NW,307,7.0,19.0,14,0.00,,,0.00,weatherlink.com 1.10,2013-06-16 19:07:00,
2013-06-16 13:22:00,90.1,31.0,25.25,WNW,297,10.0,20.0,12,0.00,,,0.00,weatherlink.com 1.10,2013-06-16 19:22:00,
2013-06-16 13:37:00,89.5,31.0,25.26,NNE,27,10.0,14.0,12,0.00,,,0.00,weatherlink.com 1.10,2013-06-16 19:37:00,
2013-06-16 13:52:00,90.8,27.0,25.25,NNW,342,7.0,17.0,10,0.00,,,0.00,weatherlink.com 1.10,2013-06-16 19:52:00,
2013-06-16 14:07:00,90.3,29.0,25.25,NNW,338,10.0,17.0,11,0.00,,,0.00,weatherlink.com 1.10,2013-06-16 20:07:00,
2013-06-16 14:22:00,90.7,33.0,25.25,NNW,335,4.0,12.0,13,0.00,,,0.00,weatherlink.com 1.10,2013-06-16 20:22:00,
2013-06-16 14:37:00,88.5,35.0,25.25,NNE,20,15.0,16.0,15,0.00,,,0.00,weatherlink.com 1.10,2013-06-16 20:37:00,
2013-06-16 14:52:00,87.4,33.0,25.25,North,6,14.0,18.0,14,0.00,,,0.00,weatherlink.com 1.10,2013-06-16 20:52:00,
2013-06-16 15:07:00,86.4,34.0,25.25,North,358,12.0,15.0,15,0.00,,,0.00,weatherlink.com 1.10,2013-06-16 21:07:00,
2013-06-16 15:22:00,86.2,33.0,25.25,North,352,8.0,18.0,15,0.00,,,0.00,weatherlink.com 1.10,2013-06-16 21:22:00,
2013-06-16 15:37:00,85.9,35.0,25.25,NNE,16,13.0,14.0,16,0.00,,,0.00,weatherlink.com 1.10,2013-06-16 21:37:00,
2013-06-16 15:52:00,85.7,35.0,25.25,North,350,3.0,12.0,16,0.00,,,0.00,weatherlink.com 1.10,2013-06-16 21:52:00,
2013-06-16 16:08:00,85.6,34.0,25.25,North,1,8.0,13.0,16,0.00,,,0.00,weatherlink.com 1.10,2013-06-16 22:08:00,
2013-06-16 16:23:00,85.9,33.0,25.24,NNE,17,7.0,12.0,15,0.00,,,0.00,weatherlink.com 1.10,2013-06-16 22:23:00,
2013-06-16 16:38:00,85.7,31.0,25.24,NNE,26,5.0,12.0,14,0.00,,,0.00,weatherlink.com 1.10,2013-06-16 22:38:00,
2013-06-16 16:53:00,85.5,31.0,25.24,NNE,29,5.0,8.0,14,0.00,,,0.00,weatherlink.com 1.10,2013-06-16 22:53:00,
2013-06-16 17:08:00,85.1,32.0,25.24,NE,41,7.0,10.0,15,0.00,,,0.00,weatherlink.com 1.10,2013-06-16 23:08:00,
2013-06-16 17:23:00,83.7,31.0,25.25,SW,224,8.0,20.0,15,0.00,,,0.00,weatherlink.com 1.10,2013-06-16 23:23:00,
2013-06-16 17:38:00,84.5,30.0,25.24,SW,221,11.0,13.0,14,0.00,,,0.00,weatherlink.com 1.10,2013-06-16 23:38:00,
2013-06-16 17:53:00,84.0,30.0,25.24,WSW,256,5.0,8.0,14,0.00,,,0.00,weatherlink.com 1.10,2013-06-16 23:53:00,
2013-06-16 18:08:00,84.1,33.0,25.24,NNW,333,1.0,7.0,16,0.00,,,0.00,weatherlink.com 1.10,2013-06-17 00:08:00,
2013-06-16 18:23:00,84.3,32.0,25.24,North,351,1.0,5.0,15,0.00,,,0.00,weatherlink.com 1.10,2013-06-17 00:23:00,
2013-06-16 18:38:00,85.0,32.0,25.25,WSW,250,2.0,6.0,15,0.00,,,0.00,weatherlink.com 1.10,2013-06-17 00:38:00,
2013-06-16 18:53:00,78.9,51.0,25.25,NE,41,17.0,21.0,38,0.00,,,0.00,weatherlink.com 1.10,2013-06-17 00:53:00,
2013-06-16 19:08:00,75.0,56.0,25.26,NNE,27,12.0,19.0,51,0.00,,,0.00,weatherlink.com 1.10,2013-06-17 01:08:00,
2013-06-16 19:23:00,75.0,55.0,25.27,NNE,27,8.0,12.0,50,0.00,,,0.00,weatherlink.com 1.10,2013-06-17 01:23:00,
2013-06-16 19:38:00,73.6,55.0,25.27,NE,50,14.0,16.0,52,0.00,,,0.00,weatherlink.com 1.10,2013-06-17 01:38:00,
2013-06-16 19:53:00,73.2,52.0,25.28,NE,55,4.0,13.0,47,0.00,,,0.00,weatherlink.com 1.10,2013-06-17 01:53:00,
2013-06-16 20:08:00,71.8,49.0,25.29,ENE,66,9.0,14.0,45,0.00,,,0.00,weatherlink.com 1.10,2013-06-17 02:08:00,
2013-06-16 20:23:00,69.1,53.0,25.29,ENE,74,5.0,10.0,57,0.00,,,0.00,weatherlink.com 1.10,2013-06-17 02:23:00,
2013-06-16 20:38:00,66.8,53.0,25.31,ENE,73,4.0,13.0,61,0.00,,,0.00,weatherlink.com 1.10,2013-06-17 02:38:00,
2013-06-16 20:53:00,64.8,52.0,25.32,ESE,113,2.0,15.0,63,0.00,,,0.00,weatherlink.com 1.10,2013-06-17 02:53:00,
2013-06-16 21:08:00,63.4,52.0,25.32,ESE,118,5.0,10.0,66,0.00,,,0.00,weatherlink.com 1.10,2013-06-17 03:08:00,
2013-06-16 21:23:00,62.2,52.0,25.33,East,99,3.0,10.0,69,0.00,,,0.00,weatherlink.com 1.10,2013-06-17 03:23:00,
2013-06-16 21:38:00,61.3,52.0,25.33,East,93,4.0,7.0,72,0.00,,,0.00,weatherlink.com 1.10,2013-06-17 03:38:00,
2013-06-16 21:53:00,60.2,52.0,25.34,ESE,120,1.0,6.0,74,0.00,,,0.00,weatherlink.com 1.10,2013-06-17 03:53:00,
2013-06-16 22:08:00,59.5,52.0,25.34,ENE,61,4.0,5.0,76,0.00,,,0.00,weatherlink.com 1.10,2013-06-17 04:08:00,
2013-06-16 22:23:00,58.5,52.0,25.33,ESE,105,4.0,6.0,78,0.00,,,0.00,weatherlink.com 1.10,2013-06-17 04:23:00,
2013-06-16 22:38:00,57.8,52.0,25.32,ENE,62,2.0,5.0,80,0.00,,,0.00,weatherlink.com 1.10,2013-06-17 04:38:00,
2013-06-16 22:53:00,57.5,52.0,25.33,ESE,106,1.0,4.0,81,0.00,,,0.00,weatherlink.com 1.10,2013-06-17 04:53:00,
2013-06-16 23:08:00,56.9,52.0,25.33,ENE,74,2.0,4.0,83,0.00,,,0.00,weatherlink.com 1.10,2013-06-17 05:08:00,
2013-06-16 23:23:00,56.2,52.0,25.34,NE,35,1.0,3.0,84,0.00,,,0.00,weatherlink.com 1.10,2013-06-17 05:23:00,
2013-06-16 23:38:00,55.9,52.0,25.34,NNE,30,1.0,3.0,86,0.00,,,0.00,weatherlink.com 1.10,2013-06-17 05:38:00,
2013-06-16 23:53:00,56.0,52.0,25.35,ENE,68,2.0,4.0,87,0.00,,,0.00,weatherlink.com 1.10,2013-06-17 05:53:00,